Wind_Speed
80 79 79 79 77 77 74 72 68 71 74 75 77 78 78 77 70 73 76 82 84 80 84 80 72 70 71
78 76 73 74 73 67 66 68 72 72 73 77 78 79 74 75 80 84 88 86 83 78 76 71 72 74 76
74 74 73 70 70 70 72 71 71 74 76 78 79 80 76 88 88 88 88 86 78 71 66 71 74 76 81
76 76 73 73 74 75 72 72 76 73 76 74 70 70 75 86 89 92 90 75 71 67 70 76 79 84 86
77 78 78 80 78 76 74 77 80 80 80 74 69 81 86 91 90 90 78 65 67 72 78 81 85 90 94
79 78 83 81 77 78 77 82 84 79 80 78 80 85 90 93 92 82 75 74 79 84 84 89 93 95 98
81 80 79 78 76 78 83 86 88 83 85 83 89 88 94 102 95 83 81 83 88 88 88 92 97 100 104
84 82 80 79 77 82 85 88 87 88 88 93 98 102 104 109 104 94 91 93 94 97 98 101 104 108 111
87 80 81 76 80 81 90 89 86 89 89 96 102 109 111 112 109 103 99 100 101 103 105 108 111 113 118
80 82 80 81 83 88 92 87 92 95 92 101 106 112 115 116 114 113 109 105 106 109 111 114 118 121 124
82 80 86 84 93 94 95 85 92 93 97 103 107 114 116 119 120 117 112 108 109 111 115 120 126 130 131
89 84 84 92 93 95 94 91 92 97 103 108 114 119 115 115 111 111 110 110 110 115 119 125 132 136 139
85 91 94 92 94 96 93 91 94 101 108 112 119 120 121 116 107 106 106 110 114 120 124 129 135 139 142
96 94 91 97 100 98 92 92 101 107 114 120 122 128 116 118 107 108 110 114 118 123 128 132 140 145 138
99 97 104 97 97 95 97 104 109 115 118 118 131 128 118 110 114 116 119 122 126 130 134 138 138 131 128
101 106 104 99 99 102 109 113 115 119 122 131 124 117 121 117 119 120 125 129 133 137 139 132 127 129 129
107 108 106 100 105 110 114 117 121 125 133 134 126 121 122 120 127 131 131 135 138 139 134 128 125 126 121
Wind_Direction
291 293 294 296 296 297 299 300 300 298 305 311 306 307 305 310 311 313 304 302 304 308 307 306 313 314 315
293 294 292 292 293 296 297 298 301 308 305 305 304 304 304 304 300 311 315 310 304 305 306 304 310 313 313
290 290 291 294 295 295 299 302 305 304 302 306 307 306 298 314 318 318 314 310 303 302 303 306 311 315 317
287 289 295 295 297 300 301 302 303 307 307 309 306 305 310 317 317 317 312 307 304 306 308 312 314 316 316
288 294 296 298 300 301 301 302 302 305 308 312 316 323 320 320 319 314 310 307 310 311 313 314 315 315 315
289 295 298 298 299 298 300 301 302 307 310 316 319 322 324 324 321 314 312 314 314 315 316 315 314 314 313
292 295 297 296 294 301 299 303 309 309 313 315 323 320 322 325 321 313 312 313 313 312 313 313 314 312 313
291 293 291 291 296 297 304 309 306 312 309 312 317 322 323 323 322 317 312 311 312 313 314 314 314 313 313
290 288 290 290 301 300 307 308 308 310 308 313 316 318 319 319 319 315 311 311 312 311 313 313 313 314 313
284 287 289 290 300 301 309 309 312 310 309 312 315 315 316 315 313 312 311 309 309 310 312 313 313 313 313
282 287 292 293 302 304 306 308 310 308 309 308 309 312 312 311 307 308 305 307 308 310 311 312 313 313 314
287 289 290 298 303 306 307 308 305 305 306 307 309 309 310 309 303 304 306 308 309 310 311 312 312 313 313
288 293 296 299 304 307 303 300 301 303 302 302 306 308 305 309 305 305 307 307 309 310 311 311 312 312 311
292 296 298 300 303 303 298 296 296 298 302 305 305 309 306 310 306 308 308 309 309 309 310 312 312 311 311
292 293 294 300 301 298 296 298 298 298 304 306 307 308 307 306 307 308 309 309 309 310 312 313 313 311 310
289 289 295 294 296 295 298 297 298 302 302 305 308 308 309 306 307 308 308 310 311 312 313 313 313 312 313
290 293 294 293 293 293 297 295 299 304 305 305 306 305 307 307 307 307 309 311 311 313 312 314 312 312 312
Height
10633 10629 10626 10620 10616 10611 10606 10599 10593 10588 10580 10574 10571 10565 10558 10548 10540 10531 10520 10507 10496 10488 10478 10468 10459 10449 10442
10616 10613 10610 10608 10601 10596 10591 10586 10579 10572 10567 10562 10556 10550 10542 10531 10521 10510 10501 10489 10478 10469 10458 10453 10441 10431 10422
10598 10597 10594 10590 10585 10580 10577 10571 10566 10560 10555 10548 10541 10534 10524 10514 10502 10492 10480 10470 10459 10449 10440 10433 10423 10411 10400
10582 10579 10578 10572 10568 10562 10559 10556 10551 10546 10539 10531 10525 10516 10508 10493 10480 10469 10460 10449 10438 10431 10424 10416 10405 10393 10382
10568 10564 10559 10556 10550 10545 10541 10537 10533 10527 10520 10512 10504 10493 10483 10471 10458 10449 10440 10430 10419 10412 10403 10395 10385 10373 10361
10556 10551 10546 10540 10534 10528 10523 10518 10514 10509 10499 10490 10481 10473 10463 10452 10439 10428 10421 10412 10402 10392 10383 10375 10367 10354 10342
10542 10536 10531 10525 10520 10515 10508 10502 10493 10486 10480 10470 10460 10452 10440 10430 10422 10411 10402 10394 10385 10376 10367 10357 10347 10334 10319
10524 10521 10515 10510 10505 10499 10496 10489 10478 10468 10457 10445 10433 10425 10415 10408 10398 10390 10382 10375 10365 10356 10343 10332 10323 10310 10294
10507 10502 10497 10494 10489 10483 10477 10467 10460 10451 10438 10426 10412 10402 10394 10384 10378 10372 10362 10352 10343 10333 10320 10306 10297 10285 10269
10487 10483 10480 10476 10470 10465 10457 10446 10435 10425 10416 10406 10396 10387 10376 10365 10355 10348 10338 10330 10319 10309 10294 10281 10268 10258 10245
10470 10467 10463 10459 10454 10444 10437 10425 10417 10408 10400 10393 10383 10373 10364 10349 10335 10328 10318 10308 10296 10283 10269 10252 10235 10221 10212
10454 10452 10446 10440 10432 10426 10415 10406 10399 10392 10385 10375 10365 10356 10346 10336 10319 10308 10293 10281 10273 10261 10247 10230 10208 10191 10172
10434 10430 10425 10417 10410 10402 10397 10389 10383 10375 10366 10358 10348 10336 10323 10312 10302 10290 10282 10265 10250 10238 10223 10207 10187 10167 10154
10414 10410 10405 10399 10391 10385 10379 10373 10366 10358 10348 10337 10324 10311 10296 10286 10275 10266 10253 10245 10234 10217 10204 10187 10164 10138 10117
10395 10389 10383 10377 10370 10363 10358 10352 10346 10337 10325 10314 10303 10287 10272 10260 10246 10237 10227 10216 10204 10189 10175 10161 10139 10107 10089
10376 10372 10364 10358 10350 10343 10337 10330 10321 10313 10302 10290 10274 10260 10248 10232 10224 10215 10201 10190 10174 10156 10139 10131 10113 10079 10056
10356 10348 10342 10338 10331 10322 10315 10304 10295 10284 10273 10262 10250 10238 10225 10209 10185 10178 10174 10158 10145 10128 10109 10097 10082 10062 10036